Probability
0 0 0 0 0 0 0 0 0 0 0 0 0 0 0 0 0 0 0 0 0 0 0 0 0 0 0 0 0 0 0 0 0 0 0 0 0 0
0 0 0 0 0 0 0 0 0 0 0 0 0 0 0 0 0 0 0 0 0 0 0 0 0 0 0 0 0 0 0 0 0 0 0 0 0 0
0 0 0 0 0 0 0 0 0 0 0 0 0 0 0 0 0 0 0 0 0 0 0 0 0 0 0 0 0 0 0 0 0 0 0 0 0 0
0 0 0 0 0 0 0 0 0 0 0 0 0 0 0 0 0 0 0 0 0 0 0 0 0 0 0 0 0 0 0 0 0 0 0 0 0 0
0 0 0 0 0 0 0 0 0 0 0 0 0 0 0 0 0 0 0 0 0 0 0 0 0 0 0 0 0 0 0 0 0 0 0 0 0 0
0 0 0 0 0 0 0 0 0 0 0 0 0 0 0 0 0 0 0 0 0 0 0 0 0 0 0 0 0 0 0 0 0 0 0 0 0 0
0 0 0 0 0 0 0 0 0 0 0 0 0 0 0 0 0 0 0 0 0 0 0 0 0 0 0 0 0 0 0 0 0 0 0 0 0 0
0 0 0 0 0 0 0 0 0 0 0 0 0 0 0 0 0 0 0 0 0 0 0 0 0 0 0 0 0 0 0 0 0 0 0 0 0 0
0 0 0 0 0 0 0 0 0 0 0 0 0 0 0 0 0 0 0 0 0 0 0 0 0 0 0 0 0 0 0 0 0 0 0 0 0 0
0 0 0 0 0 0 0 0 0 0 0 0 0 0 0 0 0 0 0 0 0 0 0 0 0 0 0 0 0 0 0 0 0 0 0 0 0 0
0 0 0 0 0 0 0 0 0 0 0 0 0 0 0 0 0 0 0 0 0 0 0 0 0 0 0 0 0 0 0 0 0 0 0 0 0 0
0 0 0 0 0 0 0 0 0 0 0 0 0 0 0 0 0 0 0 0 0 0 0 0 0 0 0 0 0 0 0 0 0 0 0 0 0 0
0 0 0 0 0 0 0 0 0 0 0 0 0 0 0 0 0 0 0 0 0 0 0 0 0 0 0 0 0 0 0 0 0 0 0 0 0 0
0 0 0 0 0 0 0 0 0 0 0 0 0 0 0 0 0 0 0 0 0 0 0 0 0 0 0 0 0 0 0 0 0 0 0 0 0 0
0 0 0 0 0 0 0 0 0 0 0 0 0 0 0 0 0 0 0 0 0 0 0 0 0 0 0 0 0 0 0 0 0 0 0 0 0 0
0 0 0 0 0 0 0 0 0 0 0 0 0 0 0 0 0 0 0 0 0 0 0 0 0 0 0 0 0 0 0 0 0 0 0 0 0 0
0 0 0 0 0 0 0 0 0 0 0 0 0 0 0 0 0 0 0 0 0 0 0 0 0 0 0 0 0 0 0 0 0 0 0 0 0 0
0 0 0 0 0 0 0 0 0 0 0 0 0 0 0 0 0 0 0 0 0 0 0 0 0 0 0 0 0 0 0 0 0 0 0 0 0 0
0 0 0 0 0 0 0 0 0 0 0 0 0 0 0 0 0 0 0 0 0 0 0 0 0 0 0 0 0 0 0 0 0 0 0 0 0 0
0 0 0 0 0 0 0 0 0 0 0 0 0 0 0 0 0 0 0 0 0 0 0 0 0 0 0 0 0 0 0 0 0 0 0 0 0 0
0 0 0 0 0 0 0 0 0 0 0 0 0 0 0 0 0 0 0 0 0 0 0 0 0 0 0 0 0 0 0 0 0 0 0 0 0 0
0 0 0 0 0 0 0 0 0 0 0 0 0 0 0 0 0 0 0 0 0 0 0 0 0 0 0 0 0 0 0 0 0 0 0 0 0 0
0 0 0 0 0 0 0 0 0 0 0 0 0 0 0 0 0 0 0 0 0 0 0 0 0 0 0 0 0 0 0 0 0 0 0 0 0 0
Wind_Speed
8 8 6 5 5 5 4 5 6 6 7 6 5 6 5 5 7 5 5 8 8 7 7 6 4 3 2 1 2 3 3 4 6 7 8 8 9 10
6 8 8 5 5 5 5 4 4 5 6 5 5 4 6 6 9 6 6 10 9 9 8 7 5 4 3 1 0 1 3 4 5 7 8 8 9 9
6 7 9 7 6 6 5 5 5 4 4 2 2 3 6 8 7 5 5 5 5 9 9 8 6 5 4 2 1 1 2 3 5 6 7 8 9 9
7 7 7 6 8 7 6 7 6 5 5 5 4 4 5 7 7 7 5 4 4 8 9 9 7 6 5 4 2 1 1 2 4 5 6 7 8 8
6 7 7 7 8 7 7 7 6 5 4 5 5 4 3 4 5 4 4 3 4 6 9 9 8 7 7 5 3 2 0 1 3 4 5 6 7 7
6 6 7 8 8 7 7 8 7 6 5 5 4 4 3 4 5 5 4 3 3 3 5 6 7 7 7 6 4 3 2 0 1 3 4 5 6 7
5 5 6 8 9 8 7 8 8 7 6 6 5 5 5 6 8 6 5 4 2 3 3 3 3 2 3 4 4 4 3 1 1 2 3 5 6 6
5 5 5 7 8 10 11 12 12 10 9 8 6 8 8 7 6 6 6 5 4 4 4 3 3 3 3 2 5 5 4 3 1 0 2 4 5 6
4 4 4 4 6 5 8 11 12 14 13 10 9 9 9 9 10 8 7 5 4 5 5 3 3 3 2 3 6 6 5 3 2 1 1 2 4 5
4 4 5 5 5 5 5 6 6 7 8 7 7 7 7 9 10 9 8 6 4 2 3 4 3 3 2 2 5 6 6 5 3 2 1 2 3 4
5 5 5 5 7 7 5 6 5 4 5 7 7 8 10 13 12 8 8 6 4 3 3 3 3 2 1 1 2 5 6 5 4 3 2 1 2 4
4 4 7 7 8 8 5 6 7 5 5 5 5 7 8 11 16 10 9 7 4 4 5 5 4 3 2 1 1 0 1 3 4 3 2 1 2 3
5 4 4 9 9 9 8 6 7 6 5 6 5 5 5 5 6 5 6 7 6 4 6 6 4 3 3 2 1 1 1 1 1 1 1 2 2 3
5 4 5 10 10 9 7 7 8 7 4 5 5 5 6 5 5 5 5 4 3 4 8 7 5 5 5 3 2 2 1 1 1 1 0 1 1 2
5 8 10 10 9 6 7 8 7 5 5 5 6 5 5 6 6 5 5 6 6 5 5 4 5 4 4 4 3 3 2 2 2 2 1 1 1 1
5 8 10 9 7 6 6 5 4 5 6 6 5 5 5 6 6 5 5 5 4 3 3 3 4 6 4 3 3 3 3 3 2 2 2 1 1 1
7 4 3 3 3 3 2 3 3 4 5 4 6 6 6 6 5 5 5 5 4 5 4 3 3 3 3 4 3 3 3 2 2 3 2 1 1 2
9 4 4 4 4 4 4 3 3 4 5 5 6 6 7 8 7 6 5 5 5 5 5 5 4 3 2 1 3 4 3 3 3 3 2 2 1 1
6 4 4 4 4 4 4 4 4 4 4 5 6 6 7 7 7 7 7 6 5 5 5 5 5 5 5 3 3 5 5 4 4 3 2 2 2 2
4 4 4 4 4 4 4 4 3 3 4 5 5 6 7 7 8 8 7 7 6 5 5 4 5 5 6 5 4 3 6 4 4 4 3 2 1 2
5 4 4 4 3 3 3 3 4 4 5 5 5 7 7 7 7 7 7 11 8 6 7 7 6 8 4 4 3 2 2 5 6 4 4 3 2 1
5 5 4 4 4 3 3 3 4 4 5 5 5 6 7 7 8 9 8 8 7 6 6 5 6 6 4 4 4 4 3 2 4 6 5 5 4 4
5 5 5 4 4 3 3 4 4 4 4 5 5 6 6 6 7 7 8 8 7 7 7 6 5 4 4 4 4 3 4 4 3 3 2 5 6 4
Wind_Direction
211 209 210 208 201 200 188 180 176 196 216 204 194 191 185 178 179 173 171 171 164 161 155 149 144 135 121 73 20 6 358 352 344 342 339 337 337 338
212 208 212 210 205 203 197 198 199 200 213 192 192 176 178 177 182 172 178 173 170 168 165 162 160 157 165 165 66 357 358 347 342 340 339 339 341 340
216 211 214 205 206 206 200 199 202 196 210 185 155 158 173 178 172 170 172 170 174 176 174 173 173 176 185 188 210 310 336 343 344 342 342 342 341 341
219 216 216 208 211 206 203 206 206 198 188 188 176 173 188 185 173 171 173 175 172 181 182 182 184 187 187 188 196 214 337 347 347 345 342 342 345 347
223 219 216 210 218 212 204 205 205 198 185 178 179 170 166 170 166 166 170 173 176 185 188 190 192 193 192 193 199 203 232 334 343 347 346 347 347 348
231 226 218 213 218 215 210 205 198 192 184 177 172 165 163 163 167 169 178 182 179 175 189 189 193 195 198 200 200 196 193 251 341 345 352 360 359 354
245 236 230 225 222 217 214 203 195 195 189 190 184 173 176 174 187 173 181 162 177 178 168 179 173 173 195 208 201 192 189 193 306 345 1 9 10 6
252 248 241 231 228 228 225 214 202 197 196 197 195 194 191 184 171 169 161 162 195 186 168 184 168 187 195 199 206 198 194 191 205 21 17 16 19 19
260 253 252 243 237 228 231 226 217 212 202 195 198 198 186 181 171 172 177 174 178 165 158 179 175 198 196 206 205 200 194 189 188 158 62 33 28 27
270 259 252 246 236 226 219 215 214 212 206 199 200 197 184 176 177 175 166 135 95 125 154 169 177 192 179 201 218 202 195 189 183 171 127 65 47 39
280 272 263 250 247 240 221 211 211 213 205 196 189 183 177 176 165 145 149 154 161 177 174 158 159 154 157 191 225 208 194 188 181 172 155 107 75 59
284 271 267 263 255 246 231 215 211 207 181 174 171 170 169 176 176 172 166 163 150 174 179 159 151 147 161 188 174 178 177 184 177 172 162 134 102 87
283 278 267 266 260 252 245 231 225 201 182 172 163 156 152 159 168 167 165 161 157 170 166 152 148 153 149 155 170 159 151 147 138 136 147 143 115 111
280 273 270 272 266 260 255 239 223 197 166 164 167 171 170 169 161 152 141 122 118 150 159 149 146 157 145 149 172 155 145 162 151 144 122 127 86 79
281 280 279 274 272 258 247 239 218 193 172 178 185 184 172 157 143 128 112 103 83 82 125 139 140 141 141 153 154 154 163 182 169 155 155 150 148 100
286 278 279 273 271 264 250 235 212 196 188 188 180 162 146 147 153 148 145 142 125 103 72 97 134 139 140 146 148 162 167 168 166 168 155 161 172 167
290 275 264 262 253 247 238 232 205 189 191 169 164 162 162 160 158 152 145 149 151 152 145 114 96 94 117 141 150 169 164 165 171 162 152 166 222 209
291 271 265 254 247 242 233 231 219 199 187 174 172 172 171 169 163 158 154 159 158 158 154 147 139 119 93 310 192 168 164 164 162 161 152 156 220 231
284 268 260 254 251 242 234 227 227 209 186 179 178 175 171 169 166 168 166 162 159 156 156 153 156 152 157 188 202 192 166 155 150 154 170 174 190 215
274 270 265 257 250 246 239 230 219 204 191 185 178 175 171 170 171 172 172 169 162 155 155 162 176 177 177 174 167 176 181 158 157 160 161 159 209 254
282 275 268 259 254 250 243 229 216 210 199 191 186 180 174 171 175 174 173 175 166 164 173 184 190 169 126 111 115 138 167 183 168 160 153 146 159 175
286 279 272 264 254 244 242 229 217 210 200 194 189 183 177 175 176 174 174 174 175 170 166 155 146 149 151 163 162 151 148 147 180 183 182 174 165 181
290 284 274 263 254 243 235 234 225 215 203 195 189 183 177 176 176 174 173 171 165 161 154 151 154 157 164 164 157 151 152 153 154 169 213 224 219 209